Location: Cahas Mountain Overlook
(37.0833°N, 80.1000°W)
Time: 09:52:33
(UTC-05:00)

S-56A Canister/Altair - Pass Details

Date: 02 December 2023
Orbit: 640 x 2488 km, 38.9° (Epoch: 25 February)

Event Time Altitude Azimuth Distance (km) Brightness Sun altitude
Rises 16:04:08 0° 282° (WNW) 3,008 11.2 9.2°
Reaches altitude 10° 16:06:14 10° 283° (WNW) 2,176 10.6 8.9°
Maximum altitude 16:11:10 87° 13° (NNE) 851 7.9 8.1°
Drops below altitude 10° 16:18:06 10° 102° (ESE) 3,007 10.2 6.9°
Sets 16:21:27 0° 103° (ESE) 4,261 10.9 6.4°
